IRIDIUM 33 DEB, 34540

Orbit data source: Space-Track

IRIDIUM 33 DEB, 34540 is space debris in LEO originally from a launch on Sun, 14 Sep 1997 UTC launched from the Tyuratam Missile And Space Complex (TTMTR). The debris from Iridium 33, an American commercial communications satellite, has been tracked extensively since its accidental collision with the defunct Russian satellite Cosmos 2251 in 2009. This event, occurring at high speed in low Earth orbit (LEO), generated thousands of pieces of space debris, significantly increasing the risk of further collisions. The Iridium 33 debris cloud has impacted space traffic management and orbital debris mitigation strategies, making it a subject of ongoing study in space situational awareness.

Loading next visibility...
Identifier
34540, 1997-051JH
Orbit
LEO
Country
Flag of USUS
Related business
Manufacturer
Unknown
Mission
Spacecraft
Bus & Motor
Unknown
Mass
Unknown
Launch date (UTC)
1997-09-14 (29 years ago)
Launch vehicle
Unknown
Launch site
Tyuratam Missile And Space Complex (TTMTR)
Object type
Payload
Rocket body
Debris
Shape & HBR
Unknown shape, 0.1 m
Radar Cross Section
Small (<0.1 m²)

Expand to show TLE details & history
Last TLE update: 11 hours ago

TLE from 11 hours ago
0 IRIDIUM 33 DEB
1 34540U 97051JH  26121.28773692  .00014581  00000-0  19869-2 0  9998
2 34540  86.3092 243.6124 0015863  52.8172 329.2650 14.78526692910812
Epoch: 2026-05-01T06:54Z
TLE epoch observation values (Epoch: 2026-05-01T06:54:20.469Z)
Latitude
21.95366°
Longitude
-77.71319°
Altitude
627.285 km
Speed
7.552 km/s
True Right ascension
16h 20m 22s
True Declination
21° 49' 57"
Sunlit
Object was in full shadow at epoch
Visualization orbit readout
Latitude
Unknown
Longitude
Unknown
Altitude
Unknown
Speed
Unknown
Apparent Right ascension
Unknown
Apparent Declination
Unknown
Sunlit
N/A
Visualization observer readout
Local Sidereal Time
01:14:52
Azimuth
Unknown
Elevation
Unknown
Doppler factor
Unknown
Orbital elements
Apogee altitude
642.001 km
Perigee altitude
619.764 km
Semi-major axis
7,009.019 km
Eccentricity
0.00159
Inclination
86.3092°
RAAN
243.6124°
Arg. of periapsis
52.8172°
True anomaly
329.17194°
Mean anomaly
329.265°
Eccentric anomaly
329.21849°
Mean motion
3.69877 °/min
Orbital period
97.33 mins
BSTAR
0.0019869
Loading maneuver chart data...
Computing Atmospheric mass density...
Loading historical data...
Loading historical data...
Loading historical data...
Loading historical data...
Loading historical data...
Loading historical data...
Loading historical data...

Documentation

Showing up to 5 results
|